MST,Max TemperatureF,Mean TemperatureF,Min TemperatureF,Max Dew PointF,MeanDew PointF,Min DewpointF,Max Humidity, Mean Humidity, Min Humidity, Max Sea Level PressureIn, Mean Sea Level PressureIn, Min Sea Level PressureIn, Max VisibilityMiles, Mean VisibilityMiles, Min VisibilityMiles, Max Wind SpeedMPH, Mean Wind SpeedMPH, Max Gust SpeedMPH,PrecipitationIn, CloudCover, Events, WindDirDegrees
2013-1-1,24,17,10,16,12,7,88,82,76,30.66,30.57,30.43,10,7,1,8,2,9,T,6,Snow,260
2013-1-2,23,18,13,16,12,6,88,74,59,30.70,30.61,30.52,10,8,1,15,5,18,0.01,6,Snow,146
2013-1-3,23,14,5,8,4,1,80,68,56,30.64,30.60,30.47,10,9,7,12,3,14,0.00,0,,157
2013-1-4,22,13,3,11,6,0,88,75,62,30.67,30.60,30.44,7,5,3,8,1,10,0.00,0,,264
2013-1-5,22,14,6,9,6,1,84,71,57,30.63,30.53,30.41,10,6,3,12,2,14,0.00,0,,176
2013-1-6,27,20,12,13,10,7,80,68,55,30.39,30.32,30.22,6,4,2,7,3,9,0.00,4,,251
2013-1-7,27,20,13,25,18,8,92,83,73,30.36,30.24,30.16,6,2,0,18,6,22,0.19,7,Fog-Snow,191
2013-1-8,36,28,20,29,21,18,92,81,70,30.35,30.28,30.18,6,2,1,12,2,14,T,7,Snow,306
2013-1-9,46,33,20,32,26,19,96,75,53,30.26,29.99,29.69,10,7,2,24,10,30,0.00,2,,135
2013-1-10,35,31,26,31,25,19,100,85,69,29.84,29.75,29.65,10,3,0,26,16,33,0.21,8,Fog-Snow,298
2013-1-11,28,19,8,23,18,5,93,78,57,30.21,29.94,29.78,10,7,1,20,13,25,0.02,6,Snow,301
2013-1-12,23,14,4,10,5,0,83,73,62,30.35,30.29,30.18,10,10,10,12,4,14,0.00,1,,200
2013-1-13,17,10,2,9,3,0,91,75,59,30.51,30.42,30.24,10,10,9,13,4,14,0.00,1,,146
2013-1-14,35,21,6,12,8,3,80,75,70,30.60,30.52,30.37,10,8,2,18,6,22,0.01,8,Snow,148
2013-1-15,22,15,8,13,10,4,96,82,67,30.82,30.69,30.47,10,6,3,8,3,9,0.00,4,,215
2013-1-16,21,13,5,10,6,1,96,79,62,30.91,30.82,30.71,10,4,0,7,2,10,T,0,Fog-Snow,201
2013-1-17,18,11,3,9,3,-2,91,79,67,30.91,30.80,30.60,8,3,0,6,1,7,T,0,Fog,244
2013-1-18,17,9,1,9,2,-4,95,83,70,30.76,30.65,30.53,4,2,0,6,1,7,T,2,Fog-Snow,232
2013-1-19,17,8,-1,8,1,-6,95,78,61,30.81,30.66,30.54,4,2,1,7,1,8,0.00,3,,276
2013-1-20,17,8,-1,9,1,-4,95,81,67,30.79,30.65,30.54,2,1,0,6,0,7,T,3,Fog-Snow,217
2013-1-21,17,7,-3,8,0,-6,95,81,67,30.72,30.58,30.42,3,2,0,7,2,8,0.00,4,Fog,284
2013-1-22,19,8,-3,10,1,-6,95,81,67,30.61,30.47,30.31,3,2,1,7,1,9,T,3,Snow,260
2013-1-23,20,11,1,12,6,-2,95,81,67,30.46,30.35,30.16,3,2,1,17,3,20,T,3,,290
2013-1-24,32,25,18,30,23,14,96,87,77,30.38,30.30,30.20,2,1,1,9,2,13,0.16,8,Rain,294
2013-1-25,37,33,28,36,30,27,100,91,82,30.33,30.18,30.01,3,1,0,13,2,14,0.12,8,Fog-Rain,309
2013-1-26,39,36,32,37,33,30,100,93,85,30.05,29.92,29.84,10,1,0,14,4,16,0.15,8,Fog-Rain-Snow,326
2013-1-27,34,29,24,32,28,23,100,88,75,30.05,29.97,29.88,10,5,0,16,8,,0.00,4,Fog,298
2013-1-28,33,27,21,31,28,18,100,91,81,30.09,30.00,29.91,10,3,1,9,3,12,0.22,8,Snow,111
2013-1-29,39,34,29,31,30,28,100,85,70,30.29,30.04,29.89,10,6,1,17,7,22,0.11,6,Snow,326
2013-1-30,44,39,33,33,32,31,89,78,67,30.34,30.29,30.23,10,10,10,10,5,15,0.01,8,Rain,332
2013-1-31,47,38,29,37,32,29,92,76,60,30.38,30.34,30.29,10,10,10,8,2,10,0.00,5,,105